Time,TemperatureF,DewpointF,PressureIn,WindDirection,WindDirectionDegrees,WindSpeedMPH,WindSpeedGustMPH,Humidity,HourlyPrecipIn,Conditions,Clouds,dailyrainin,SoftwareType,DateUTC
2013-08-06 00:33:00,67.0,59.0,-100.00,WNW,290,0.0,0.0,75,0.00,,,-99.99,,2013-08-06 04:33:00,
2013-08-06 00:44:00,67.0,59.0,-100.00,WNW,290,0.0,0.0,75,0.00,,,-99.99,,2013-08-06 04:44:00,
2013-08-06 01:02:00,66.0,58.0,-100.00,WNW,295,0.0,0.0,75,0.00,,,-99.99,,2013-08-06 05:02:00,
2013-08-06 01:22:00,66.0,57.0,-100.00,NW,305,0.0,0.0,74,0.00,,,-99.99,,2013-08-06 05:22:00,
2013-08-06 01:32:00,66.0,57.0,-100.00,WNW,300,0.0,0.0,73,0.00,,,-99.99,,2013-08-06 05:32:00,
2013-08-06 01:53:00,66.0,57.0,-100.00,West,280,0.0,0.0,74,0.00,,,-99.99,,2013-08-06 05:53:00,
2013-08-06 02:02:00,66.0,58.0,-100.00,West,265,0.0,0.0,74,0.00,,,-99.99,,2013-08-06 06:02:00,
2013-08-06 02:11:00,65.0,58.0,-100.00,West,275,0.0,0.0,75,0.00,,,-99.99,,2013-08-06 06:11:00,
2013-08-06 02:22:00,65.0,57.0,-100.00,West,280,0.0,0.0,75,0.00,,,-99.99,,2013-08-06 06:22:00,
2013-08-06 02:32:00,66.0,57.0,-100.00,West,260,0.0,0.0,74,0.00,,,-99.99,,2013-08-06 06:32:00,
2013-08-06 02:43:00,66.0,57.0,-100.00,West,260,0.0,0.0,73,0.00,,,-99.99,,2013-08-06 06:43:00,
2013-08-06 02:52:00,66.0,57.0,-100.00,West,280,0.0,0.0,74,0.00,,,-99.99,,2013-08-06 06:52:00,
2013-08-06 03:01:00,66.0,57.0,-100.00,WNW,290,0.0,0.0,74,0.00,,,-99.99,,2013-08-06 07:01:00,
2013-08-06 03:12:00,66.0,57.0,-100.00,West,275,0.0,0.0,75,0.00,,,-99.99,,2013-08-06 07:12:00,
2013-08-06 03:32:00,65.0,57.0,-100.00,WNW,290,0.0,0.0,75,0.00,,,-99.99,,2013-08-06 07:32:00,
2013-08-06 03:43:00,65.0,57.0,-100.00,NW,305,0.0,0.0,76,0.00,,,-99.99,,2013-08-06 07:43:00,
2013-08-06 03:53:00,65.0,57.0,-100.00,NW,305,0.0,0.0,75,0.00,,,-99.99,,2013-08-06 07:53:00,
2013-08-06 04:02:00,65.0,57.0,-100.00,WSW,240,0.0,0.0,76,0.00,,,-99.99,,2013-08-06 08:02:00,
2013-08-06 04:11:00,65.0,57.0,-100.00,West,265,0.0,0.0,76,0.00,,,-99.99,,2013-08-06 08:11:00,
2013-08-06 04:22:00,65.0,57.0,-100.00,West,265,0.0,0.0,76,0.00,,,-99.99,,2013-08-06 08:22:00,
2013-08-06 04:33:00,65.0,57.0,-100.00,NNW,345,0.0,0.0,76,0.00,,,-99.99,,2013-08-06 08:33:00,
2013-08-06 04:43:00,65.0,57.0,-100.00,NNW,345,0.0,0.0,76,0.00,,,-99.99,,2013-08-06 08:43:00,
2013-08-06 04:52:00,65.0,56.0,-100.00,WSW,245,0.0,0.0,73,0.00,,,-99.99,,2013-08-06 08:52:00,
2013-08-06 05:01:00,65.0,56.0,-100.00,WNW,285,0.0,0.0,74,0.00,,,-99.99,,2013-08-06 09:01:00,
2013-08-06 05:32:00,65.0,57.0,-100.00,WSW,255,0.0,0.0,74,0.00,,,-99.99,,2013-08-06 09:32:00,
2013-08-06 05:43:00,65.0,56.0,-100.00,WNW,290,0.0,0.0,73,0.00,,,-99.99,,2013-08-06 09:43:00,
2013-08-06 06:01:00,65.0,56.0,-100.00,West,270,0.0,0.0,73,0.00,,,-99.99,,2013-08-06 10:01:00,
2013-08-06 06:32:00,65.0,56.0,-100.00,West,270,0.0,0.0,74,0.00,,,-99.99,,2013-08-06 10:32:00,
2013-08-06 06:43:00,65.0,56.0,-100.00,West,260,0.0,0.0,75,0.00,,,-99.99,,2013-08-06 10:43:00,
2013-08-06 07:32:00,65.0,56.0,-100.00,NW,305,0.0,0.0,72,0.00,,,-99.99,,2013-08-06 11:32:00,
2013-08-06 07:43:00,65.0,56.0,-100.00,NW,305,0.0,0.0,72,0.00,,,-99.99,,2013-08-06 11:43:00,
2013-08-06 08:02:00,65.0,56.0,-100.00,WNW,300,0.0,0.0,73,0.00,,,-99.99,,2013-08-06 12:02:00,
2013-08-06 08:22:00,65.0,57.0,-100.00,WNW,285,0.0,0.0,74,0.00,,,-99.99,,2013-08-06 12:22:00,
2013-08-06 08:43:00,66.0,57.0,-100.00,WNW,290,0.0,0.0,71,0.00,,,-99.99,,2013-08-06 12:43:00,
2013-08-06 08:52:00,67.0,57.0,-100.00,West,270,0.0,0.0,71,0.00,,,-99.99,,2013-08-06 12:52:00,
2013-08-06 09:02:00,68.0,57.0,-100.00,WNW,290,0.0,0.0,68,0.00,,,-99.99,,2013-08-06 13:02:00,
2013-08-06 09:22:00,68.0,56.0,-100.00,WNW,285,0.0,0.0,66,0.00,,,-99.99,,2013-08-06 13:22:00,
2013-08-06 09:32:00,70.0,57.0,-100.00,WNW,300,0.0,0.0,65,0.00,,,-99.99,,2013-08-06 13:32:00,
2013-08-06 10:01:00,72.0,57.0,-100.00,West,280,0.0,0.0,59,0.00,,,-99.99,,2013-08-06 14:01:00,
2013-08-06 10:32:00,73.0,57.0,-100.00,WNW,300,0.0,0.0,58,0.00,,,-99.99,,2013-08-06 14:32:00,
2013-08-06 10:53:00,74.0,59.0,-100.00,WSW,240,0.0,0.0,58,0.00,,,-99.99,,2013-08-06 14:53:00,
2013-08-06 11:33:00,76.0,58.0,-100.00,West,270,0.0,0.0,55,0.00,,,-99.99,,2013-08-06 15:33:00,
2013-08-06 11:44:00,76.0,58.0,-100.00,NW,325,0.0,0.0,55,0.00,,,-99.99,,2013-08-06 15:44:00,
2013-08-06 12:02:00,77.0,58.0,-100.00,WNW,285,0.0,0.0,51,0.00,,,-99.99,,2013-08-06 16:02:00,
2013-08-06 12:22:00,77.0,57.0,-100.00,WNW,295,0.0,0.0,50,0.00,,,-99.99,,2013-08-06 16:22:00,
2013-08-06 12:32:00,78.0,58.0,-100.00,WNW,300,0.0,0.0,50,0.00,,,-99.99,,2013-08-06 16:32:00,
2013-08-06 12:43:00,78.0,57.0,-100.00,NW,325,0.0,0.0,48,0.00,,,-99.99,,2013-08-06 16:43:00,
2013-08-06 13:02:00,78.0,57.0,-100.00,North,0,0.0,0.0,47,0.00,,,-99.99,,2013-08-06 17:02:00,
2013-08-06 13:21:00,78.0,58.0,-100.00,North,355,0.0,0.0,48,0.00,,,-99.99,,2013-08-06 17:21:00,
2013-08-06 13:32:00,78.0,58.0,-100.00,NW,320,0.0,0.0,48,0.00,,,-99.99,,2013-08-06 17:32:00,
2013-08-06 13:44:00,80.0,59.0,-100.00,NW,320,0.0,0.0,49,0.00,,,-99.99,,2013-08-06 17:44:00,
2013-08-06 15:32:00,82.0,60.0,-100.00,NW,320,0.0,0.0,48,0.00,,,-99.99,,2013-08-06 19:32:00,
2013-08-06 15:42:00,82.0,60.0,-100.00,West,275,0.0,0.0,47,0.00,,,-99.99,,2013-08-06 19:42:00,
2013-08-06 16:01:00,80.0,59.0,-100.00,WNW,300,0.0,0.0,48,0.00,,,-99.99,,2013-08-06 20:01:00,
2013-08-06 16:32:00,81.0,59.0,-100.00,NW,320,0.0,0.0,48,0.00,,,-99.99,,2013-08-06 20:32:00,
2013-08-06 16:44:00,80.0,60.0,-100.00,NW,315,0.0,0.0,49,0.00,,,-99.99,,2013-08-06 20:44:00,
2013-08-06 17:01:00,80.0,60.0,-100.00,NW,320,0.0,0.0,50,0.00,,,-99.99,,2013-08-06 21:01:00,
2013-08-06 17:22:00,80.0,60.0,-100.00,NW,310,0.0,0.0,50,0.00,,,-99.99,,2013-08-06 21:22:00,
2013-08-06 17:43:00,81.0,60.0,-100.00,West,275,0.0,0.0,48,0.00,,,-99.99,,2013-08-06 21:43:00,
2013-08-06 17:52:00,81.0,59.0,-100.00,NNW,330,0.0,0.0,47,0.00,,,-99.99,,2013-08-06 21:52:00,
2013-08-06 18:01:00,81.0,59.0,-100.00,NW,325,0.0,0.0,47,0.00,,,-99.99,,2013-08-06 22:01:00,
2013-08-06 18:11:00,82.0,60.0,-100.00,WNW,300,0.0,0.0,48,0.00,,,-99.99,,2013-08-06 22:11:00,
2013-08-06 18:32:00,82.0,60.0,-100.00,NW,325,0.0,0.0,49,0.00,,,-99.99,,2013-08-06 22:32:00,
2013-08-06 18:43:00,81.0,60.0,-100.00,WNW,295,0.0,0.0,49,0.00,,,-99.99,,2013-08-06 22:43:00,
2013-08-06 18:52:00,81.0,60.0,-100.00,WNW,295,0.0,0.0,50,0.00,,,-99.99,,2013-08-06 22:52:00,
2013-08-06 19:01:00,80.0,61.0,-100.00,NW,320,0.0,0.0,52,0.00,,,-99.99,,2013-08-06 23:01:00,
2013-08-06 19:11:00,80.0,61.0,-100.00,NW,320,0.0,0.0,53,0.00,,,-99.99,,2013-08-06 23:11:00,
2013-08-06 19:33:00,79.0,61.0,-100.00,NW,325,0.0,0.0,54,0.00,,,-99.99,,2013-08-06 23:33:00,
2013-08-06 19:52:00,79.0,61.0,-100.00,NW,325,0.0,0.0,53,0.00,,,-99.99,,2013-08-06 23:52:00,
2013-08-06 20:01:00,79.0,61.0,-100.00,NW,325,0.0,0.0,55,0.00,,,-99.99,,2013-08-07 00:01:00,
2013-08-06 20:11:00,79.0,61.0,-100.00,NW,305,0.0,0.0,54,0.00,,,-99.99,,2013-08-07 00:11:00,
2013-08-06 20:21:00,79.0,62.0,-100.00,NW,325,0.0,0.0,55,0.00,,,-99.99,,2013-08-07 00:21:00,
2013-08-06 20:32:00,78.0,62.0,-100.00,NW,320,0.0,0.0,57,0.00,,,-99.99,,2013-08-07 00:32:00,
2013-08-06 20:43:00,78.0,62.0,-100.00,NW,305,0.0,0.0,57,0.00,,,-99.99,,2013-08-07 00:43:00,
2013-08-06 20:52:00,78.0,62.0,-100.00,NW,305,0.0,0.0,58,0.00,,,-99.99,,2013-08-07 00:52:00,
2013-08-06 21:01:00,77.0,62.0,-100.00,NW,325,0.0,0.0,58,0.00,,,-99.99,,2013-08-07 01:01:00,
2013-08-06 21:22:00,77.0,61.0,-100.00,NW,315,0.0,0.0,58,0.00,,,-99.99,,2013-08-07 01:22:00,
2013-08-06 21:32:00,76.0,62.0,-100.00,NW,305,0.0,0.0,60,0.00,,,-99.99,,2013-08-07 01:32:00,
2013-08-06 21:43:00,76.0,62.0,-100.00,NW,325,0.0,0.0,61,0.00,,,-99.99,,2013-08-07 01:43:00,
2013-08-06 22:02:00,75.0,62.0,-100.00,NW,320,0.0,0.0,62,0.00,,,-99.99,,2013-08-07 02:02:00,
2013-08-06 22:53:00,75.0,62.0,-100.00,West,280,0.0,0.0,64,0.00,,,-99.99,,2013-08-07 02:53:00,
2013-08-06 23:12:00,74.0,62.0,-100.00,West,280,0.0,0.0,65,0.00,,,-99.99,,2013-08-07 03:12:00,
2013-08-06 23:23:00,74.0,62.0,-100.00,WNW,285,0.0,0.0,66,0.00,,,-99.99,,2013-08-07 03:23:00,
2013-08-06 23:32:00,74.0,62.0,-100.00,WNW,285,0.0,0.0,65,0.00,,,-99.99,,2013-08-07 03:32:00,
2013-08-06 23:43:00,74.0,62.0,-100.00,West,280,0.0,0.0,65,0.00,,,-99.99,,2013-08-07 03:43:00,